Rifle, CO

9:13 AM MST on December 12, 2017 (GMT -0700)
Garfield County Regional

Weather History for KRIL - July, 2013

Change the Weather History Date:

Thursday, July 18, 2013

  Actual Average Record
Temperature  
Mean Temperature 77 °F 73 °F  
Max Temperature 93 °F 91 °F 102 °F (1934)
Min Temperature 61 °F 55 °F 41 °F (1937)
Degree Days  
Heating Degree Days 0 0  
Month to date heating degree days 0 0  
Since 1 June heating degree days 13 59  
Since 1 July heating degree days 0 0  
Cooling Degree Days 12 8  
Month to date cooling degree days 206 132  
Year to date cooling degree days 364 234  
Since 1 June cooling degree days 357 227  
Growing Degree Days 28 (Base 50)    
Moisture  
Dew Point 55 °F    
Average Humidity 54    
Maximum Humidity 84    
Minimum Humidity 23    
Precipitation  
Precipitation 0.09 in 0.03 in 1.08 in (1942)
Month to date precipitation 0.54 0.48  
Year to date precipitation 4.53 6.92  
Sea Level Pressure  
Sea Level Pressure 30.07 in    
Wind  
Wind Speed 7 mph (ENE)    
Max Wind Speed 29 mph    
Max Gust Speed 38 mph    
Visibility 10 miles    
Events Rain , Thunderstorm    
T = Trace of Precipitation, MM = Missing Value Source: NWS Daily Summary

Daily Weather History Graph

Daily Weather History Graph

Search for Another Location

Airport or City:

Trip Planner

Search our weather history database for the weather conditions in past years. The results will help you decide how hot, cold, wet, or windy it might be!

Date:

Astronomy

Jul. 18, 2013 Rise Set
Actual Time 5:58 AM MDT 8:35 PM MDT
Civil Twilight 5:27 AM MDT 9:06 PM MDT
Nautical Twilight 4:48 AM MDT 9:45 PM MDT
Astronomical Twilight 4:04 AM MDT 10:28 PM MDT
Moon 4:35 PM MDT (7/18) 1:51 AM MDT (7/18)
Length of Visible Light 15h 39m
Length of Day
14h 36m
Waxing Gibbous, 78% of the Moon is Illuminated
Jul 18
Waxing Gibbous
Jul 22
Full
Jul 29
Last Quarter
Aug 6
New
Aug 14
First Quarter

Hourly Weather History & Observations

Time (MDT) Temp. Heat Index Dew Point Humidity Pressure Visibility Wind Dir Wind Speed Gust Speed Precip Events Conditions
12:53 AM 66.9 °F - 60.1 °F 79% 30.03 in 10.0 mi West 5.8 mph - N/A   Clear
1:53 AM 66.9 °F - 59.0 °F 76% 30.03 in 10.0 mi West 5.8 mph - N/A   Mostly Cloudy
2:53 AM 64.9 °F - 60.1 °F 84% 30.05 in 10.0 mi Calm Calm - 0.00 in Rain Light Rain
3:29 AM 66.2 °F - 59.0 °F 78% 30.28 in 10.0 mi ENE 3.5 mph - 0.00 in Thunderstorm Thunderstorm
3:53 AM 64.9 °F - 57.9 °F 78% 30.06 in 10.0 mi SE 3.5 mph - 0.00 in Thunderstorm Thunderstorm
4:09 AM 66.2 °F - 59.0 °F 78% 30.29 in 10.0 mi North 3.5 mph - N/A   Clear
4:53 AM 63.0 °F - 59.0 °F 87% 30.06 in 10.0 mi East 3.5 mph - N/A   Overcast
5:53 AM 63.0 °F - 55.0 °F 75% 30.09 in 10.0 mi East 4.6 mph - N/A   Clear
6:53 AM 63.0 °F - 57.0 °F 81% 30.09 in 10.0 mi SE 3.5 mph - N/A   Clear
7:53 AM 66.0 °F - 57.0 °F 73% 30.09 in 10.0 mi NNE 4.6 mph - N/A   Clear
8:53 AM 70.0 °F - 55.9 °F 61% 30.11 in 10.0 mi Calm Calm - N/A   Clear
9:53 AM 73.9 °F - 57.0 °F 55% 30.08 in 10.0 mi North 4.6 mph - N/A   Clear
10:53 AM 75.9 °F - 55.0 °F 48% 30.06 in 10.0 mi NNW 3.5 mph - N/A   Clear
11:53 AM 81.0 °F 80.4 °F 53.1 °F 38% 30.01 in 10.0 mi Calm Calm - N/A   Clear
12:53 PM 84.9 °F 83.2 °F 53.1 °F 33% 29.97 in 10.0 mi Variable 4.6 mph - N/A   Clear
1:53 PM 89.1 °F - 48.0 °F 24% 29.92 in 10.0 mi North 3.5 mph - N/A   Clear
2:53 PM 91.0 °F 88.7 °F 54.0 °F 28% 29.90 in 10.0 mi NNE 17.3 mph - N/A   Scattered Clouds
3:27 PM 89.6 °F - 51.8 °F 27% 30.13 in 10.0 mi NNE 12.7 mph - N/A Thunderstorm Clear
3:42 PM 91.4 °F - 50.0 °F 24% 30.12 in 10.0 mi NNE 10.4 mph - N/A   Clear
3:53 PM 93.0 °F - 50.0 °F 23% 29.86 in 10.0 mi North 11.5 mph - N/A   Clear
4:53 PM 91.9 °F - 48.9 °F 23% 29.86 in 10.0 mi North 5.8 mph - N/A   Clear
5:53 PM 88.0 °F - 50.0 °F 27% 29.89 in 10.0 mi NE 17.3 mph 23.0 mph N/A   Partly Cloudy
6:10 PM 82.4 °F - 48.2 °F 30% 30.13 in 10.0 mi ENE 11.5 mph 29.9 mph N/A   Mostly Cloudy
6:51 PM 80.6 °F - 48.2 °F 32% 30.13 in 10.0 mi East 21.9 mph 34.5 mph 0.00 in Thunderstorm Overcast
6:53 PM 81.0 °F - 48.0 °F 31% 29.92 in 10.0 mi East 27.6 mph 36.8 mph 0.00 in Thunderstorm Mostly Cloudy
7:11 PM 78.8 °F - 48.2 °F 34% 30.15 in 10.0 mi East 21.9 mph 34.5 mph N/A   Scattered Clouds
7:39 PM 75.2 °F - 50.0 °F 41% 30.19 in 10.0 mi ENE 10.4 mph 27.6 mph N/A Thunderstorm Overcast
7:53 PM 70.0 °F - 57.9 °F 65% 30.01 in 4.0 mi NE 16.1 mph 23.0 mph 0.05 in Rain , Thunderstorm Heavy Rain
8:14 PM 68.0 °F - 59.0 °F 73% 30.22 in 8.0 mi South 23.0 mph 27.6 mph 0.02 in Rain , Thunderstorm Light Thunderstorms and Rain
8:31 PM 66.2 °F - 57.2 °F 73% 30.24 in 10.0 mi SSE 20.7 mph 28.8 mph 0.02 in Rain Light Rain
8:53 PM 66.0 °F - 59.0 °F 78% 30.07 in 10.0 mi South 11.5 mph - 0.04 in Rain Light Rain
9:53 PM 66.0 °F - 57.0 °F 73% 30.08 in 10.0 mi East 9.2 mph - 0.00 in   Clear
10:53 PM 66.0 °F - 57.0 °F 73% 30.08 in 10.0 mi ESE 5.8 mph - N/A   Overcast
11:53 PM 66.9 °F - 57.0 °F 70% 30.06 in 10.0 mi Calm Calm - N/A   Overcast